Time,TemperatureF,DewpointF,PressureIn,WindDirection,WindDirectionDegrees,WindSpeedMPH,WindSpeedGustMPH,Humidity,HourlyPrecipIn,Conditions,Clouds,dailyrainin,SoftwareType,DateUTC
2013-05-15 00:00:00,57.2,43.9,30.03,SE,138,0.0,1.0,61,0.00,,---,0.00,VWS V14.01,2013-05-15 04:00:00,
2013-05-15 00:01:00,57.2,43.9,30.03,SE,138,0.0,1.0,61,0.00,,---,0.00,VWS V14.01,2013-05-15 04:01:00,
2013-05-15 00:05:00,57.0,43.7,30.03,SE,138,0.0,0.0,61,0.00,,---,0.00,VWS V14.01,2013-05-15 04:05:00,
2013-05-15 00:06:00,57.0,43.7,30.03,SE,138,0.0,0.0,61,0.00,,---,0.00,VWS V14.01,2013-05-15 04:06:00,
2013-05-15 00:10:00,56.9,44.0,30.03,SE,144,0.0,0.0,62,0.00,,---,0.00,VWS V14.01,2013-05-15 04:10:00,
2013-05-15 00:11:00,56.9,44.0,30.03,SE,144,0.0,0.0,62,0.00,,---,0.00,VWS V14.01,2013-05-15 04:11:00,
2013-05-15 00:15:00,56.7,43.8,30.02,SE,144,0.0,0.0,62,0.00,,---,0.00,VWS V14.01,2013-05-15 04:15:00,
2013-05-15 00:16:00,56.7,43.8,30.02,SE,144,0.0,0.0,62,0.00,,---,0.00,VWS V14.01,2013-05-15 04:16:00,
2013-05-15 00:20:00,56.6,44.2,30.02,SSE,157,0.0,2.0,63,0.00,,---,0.00,VWS V14.01,2013-05-15 04:20:00,
2013-05-15 00:21:00,56.6,44.2,30.02,SSE,157,0.0,0.0,63,0.00,,---,0.00,VWS V14.01,2013-05-15 04:21:00,
2013-05-15 00:25:00,56.6,43.8,30.02,SE,138,0.0,1.0,62,0.00,,---,0.00,VWS V14.01,2013-05-15 04:25:00,
2013-05-15 00:26:00,56.6,43.8,30.02,SE,138,0.0,0.0,62,0.00,,---,0.00,VWS V14.01,2013-05-15 04:26:00,
2013-05-15 00:30:00,56.5,43.7,30.02,SE,138,0.0,0.0,62,0.00,,---,0.00,VWS V14.01,2013-05-15 04:30:00,
2013-05-15 00:31:00,56.5,43.7,30.02,SE,138,0.0,0.0,62,0.00,,---,0.00,VWS V14.01,2013-05-15 04:31:00,
2013-05-15 00:35:00,56.5,43.7,30.02,SE,138,0.0,0.0,62,0.00,,---,0.00,VWS V14.01,2013-05-15 04:35:00,
2013-05-15 00:36:00,56.5,43.7,30.02,SE,138,0.0,0.0,62,0.00,,---,0.00,VWS V14.01,2013-05-15 04:36:00,
2013-05-15 00:40:00,56.5,43.7,30.02,SE,138,0.0,0.0,62,0.00,,---,0.00,VWS V14.01,2013-05-15 04:40:00,
2013-05-15 00:41:00,56.5,43.7,30.02,SE,138,0.0,0.0,62,0.00,,---,0.00,VWS V14.01,2013-05-15 04:41:00,
2013-05-15 00:45:00,56.3,43.0,30.02,SSE,152,0.0,1.0,61,0.00,,---,0.00,VWS V14.01,2013-05-15 04:45:00,
2013-05-15 00:46:00,56.3,43.0,30.02,SSE,152,0.0,0.0,61,0.00,,---,0.00,VWS V14.01,2013-05-15 04:46:00,
2013-05-15 00:50:00,56.5,42.8,30.02,SSE,157,0.0,1.0,60,0.00,,---,0.00,VWS V14.01,2013-05-15 04:50:00,
2013-05-15 00:51:00,56.5,43.2,30.02,SSE,157,0.0,0.0,61,0.00,,---,0.00,VWS V14.01,2013-05-15 04:51:00,
2013-05-15 00:55:00,56.5,42.8,30.02,SSE,157,0.0,0.0,60,0.00,,---,0.00,VWS V14.01,2013-05-15 04:55:00,
2013-05-15 00:56:00,56.5,42.8,30.02,SSE,157,0.0,0.0,60,0.00,,---,0.00,VWS V14.01,2013-05-15 04:56:00,
2013-05-15 01:00:00,56.6,42.0,30.02,South,189,0.0,0.0,58,0.00,,---,0.00,VWS V14.01,2013-05-15 05:00:00,
2013-05-15 01:01:00,56.6,42.0,30.02,South,189,0.0,0.0,58,0.00,,---,0.00,VWS V14.01,2013-05-15 05:01:00,
2013-05-15 01:05:00,56.7,42.5,30.02,SSW,193,0.0,1.0,59,0.00,,---,0.00,VWS V14.01,2013-05-15 05:05:00,
2013-05-15 01:06:00,56.7,42.5,30.02,SSW,193,0.0,0.0,59,0.00,,---,0.00,VWS V14.01,2013-05-15 05:06:00,
2013-05-15 01:10:00,56.9,41.8,30.02,SSE,148,0.0,1.0,57,0.00,,---,0.00,VWS V14.01,2013-05-15 05:10:00,
2013-05-15 01:11:00,56.9,41.8,30.02,SSE,148,0.0,0.0,57,0.00,,---,0.00,VWS V14.01,2013-05-15 05:11:00,
2013-05-15 01:15:00,57.0,42.4,30.02,SSE,148,0.0,0.0,58,0.00,,---,0.00,VWS V14.01,2013-05-15 05:15:00,
2013-05-15 01:16:00,57.0,42.4,30.02,SSE,148,0.0,0.0,58,0.00,,---,0.00,VWS V14.01,2013-05-15 05:16:00,
2013-05-15 01:20:00,57.0,41.9,30.02,SSE,148,0.0,1.0,57,0.00,,---,0.00,VWS V14.01,2013-05-15 05:20:00,
2013-05-15 01:21:00,57.0,41.9,30.02,SSE,148,0.0,0.0,57,0.00,,---,0.00,VWS V14.01,2013-05-15 05:21:00,
2013-05-15 01:25:00,57.0,41.9,30.02,SE,138,0.0,2.0,57,0.00,,---,0.00,VWS V14.01,2013-05-15 05:25:00,
2013-05-15 01:26:00,57.0,41.9,30.02,SE,138,0.0,2.0,57,0.00,,---,0.00,VWS V14.01,2013-05-15 05:26:00,
2013-05-15 01:30:00,57.0,42.4,30.02,South,189,0.0,1.0,58,0.00,,---,0.00,VWS V14.01,2013-05-15 05:30:00,
2013-05-15 01:31:00,57.0,42.4,30.02,South,189,0.0,1.0,58,0.00,,---,0.00,VWS V14.01,2013-05-15 05:31:00,
2013-05-15 01:35:00,57.0,41.9,30.02,ESE,120,0.0,3.0,57,0.00,,---,0.00,VWS V14.01,2013-05-15 05:35:00,
2013-05-15 01:36:00,57.0,41.9,30.02,ESE,120,0.0,3.0,57,0.00,,---,0.00,VWS V14.01,2013-05-15 05:36:00,
2013-05-15 01:40:00,57.0,41.9,30.02,SE,140,0.0,0.0,57,0.00,,---,0.00,VWS V14.01,2013-05-15 05:40:00,
2013-05-15 01:41:00,57.0,41.9,30.02,SE,140,0.0,0.0,57,0.00,,---,0.00,VWS V14.01,2013-05-15 05:41:00,
2013-05-15 01:45:00,57.0,41.5,30.02,SSW,210,0.0,0.0,56,0.00,,---,0.00,VWS V14.01,2013-05-15 05:45:00,
2013-05-15 01:46:00,57.0,41.5,30.02,SSW,210,0.0,0.0,56,0.00,,---,0.00,VWS V14.01,2013-05-15 05:46:00,
2013-05-15 01:50:00,57.0,42.4,30.02,SSW,199,0.0,0.0,58,0.00,,---,0.00,VWS V14.01,2013-05-15 05:50:00,
2013-05-15 01:51:00,57.0,42.4,30.02,SSW,199,0.0,0.0,58,0.00,,---,0.00,VWS V14.01,2013-05-15 05:51:00,
2013-05-15 01:55:00,56.9,42.3,30.02,ESE,120,0.0,3.0,58,0.00,,---,0.00,VWS V14.01,2013-05-15 05:55:00,
2013-05-15 01:56:00,56.9,42.3,30.02,ESE,120,0.0,3.0,58,0.00,,---,0.00,VWS V14.01,2013-05-15 05:56:00,
2013-05-15 02:00:00,56.9,42.3,30.02,South,184,0.0,1.0,58,0.00,,---,0.00,VWS V14.01,2013-05-15 06:00:00,
2013-05-15 02:01:00,56.9,42.3,30.02,South,184,0.0,1.0,58,0.00,,---,0.00,VWS V14.01,2013-05-15 06:01:00,
2013-05-15 02:05:00,56.7,42.1,30.02,South,181,0.0,0.0,58,0.00,,---,0.00,VWS V14.01,2013-05-15 06:05:00,
2013-05-15 02:06:00,56.7,42.1,30.02,South,181,0.0,0.0,58,0.00,,---,0.00,VWS V14.01,2013-05-15 06:06:00,
2013-05-15 02:10:00,56.7,42.1,30.02,SSE,165,0.0,0.0,58,0.00,,---,0.00,VWS V14.01,2013-05-15 06:10:00,
2013-05-15 02:11:00,56.7,42.1,30.02,SSE,165,0.0,0.0,58,0.00,,---,0.00,VWS V14.01,2013-05-15 06:11:00,
2013-05-15 02:15:00,56.7,41.7,30.02,SSE,152,0.0,2.0,57,0.00,,---,0.00,VWS V14.01,2013-05-15 06:15:00,
2013-05-15 02:16:00,56.7,41.7,30.02,SSE,152,0.0,0.0,57,0.00,,---,0.00,VWS V14.01,2013-05-15 06:16:00,
2013-05-15 02:20:00,56.6,42.5,30.02,SSE,151,0.0,0.0,59,0.00,,---,0.00,VWS V14.01,2013-05-15 06:20:00,
2013-05-15 02:21:00,56.6,42.5,30.02,SSE,151,0.0,0.0,59,0.00,,---,0.00,VWS V14.01,2013-05-15 06:21:00,
2013-05-15 02:25:00,56.6,42.5,30.02,SSE,148,0.0,0.0,59,0.00,,---,0.00,VWS V14.01,2013-05-15 06:25:00,
2013-05-15 02:26:00,56.6,42.9,30.02,SSE,148,0.0,0.0,60,0.00,,---,0.00,VWS V14.01,2013-05-15 06:26:00,
2013-05-15 02:30:00,56.5,42.4,30.01,SE,145,0.0,1.0,59,0.00,,---,0.00,VWS V14.01,2013-05-15 06:30:00,
2013-05-15 02:31:00,56.5,42.4,30.01,SE,127,0.0,0.0,59,0.00,,---,0.00,VWS V14.01,2013-05-15 06:31:00,
2013-05-15 02:35:00,56.5,42.8,30.01,SE,128,0.0,0.0,60,0.00,,---,0.00,VWS V14.01,2013-05-15 06:35:00,
2013-05-15 02:36:00,56.5,42.8,30.01,SE,128,0.0,0.0,60,0.00,,---,0.00,VWS V14.01,2013-05-15 06:36:00,
2013-05-15 02:40:00,56.3,42.2,30.01,SE,127,0.0,1.0,59,0.00,,---,0.00,VWS V14.01,2013-05-15 06:40:00,
2013-05-15 02:41:00,56.3,42.2,30.01,SE,127,0.0,0.0,59,0.00,,---,0.00,VWS V14.01,2013-05-15 06:41:00,
2013-05-15 02:45:00,56.3,42.6,30.01,South,172,0.0,0.0,60,0.00,,---,0.00,VWS V14.01,2013-05-15 06:45:00,
2013-05-15 02:46:00,56.3,42.6,30.01,South,172,0.0,0.0,60,0.00,,---,0.00,VWS V14.01,2013-05-15 06:46:00,
2013-05-15 02:50:00,56.2,42.5,30.01,SSE,154,0.0,1.0,60,0.00,,---,0.00,VWS V14.01,2013-05-15 06:50:00,
2013-05-15 02:51:00,56.2,42.5,30.01,SSE,154,0.0,0.0,60,0.00,,---,0.00,VWS V14.01,2013-05-15 06:51:00,
2013-05-15 02:55:00,56.2,42.5,30.01,SSE,150,0.0,2.0,60,0.00,,---,0.00,VWS V14.01,2013-05-15 06:55:00,
2013-05-15 02:56:00,56.2,42.5,30.01,SSE,150,0.0,0.0,60,0.00,,---,0.00,VWS V14.01,2013-05-15 06:56:00,
2013-05-15 03:00:00,56.0,42.8,30.01,ESE,110,0.0,1.0,61,0.00,,---,0.00,VWS V14.01,2013-05-15 07:00:00,
2013-05-15 03:01:00,56.0,42.3,30.01,South,169,3.0,3.0,60,0.00,,---,0.00,VWS V14.01,2013-05-15 07:01:00,
2013-05-15 03:05:00,56.0,42.3,30.01,East,95,0.0,3.0,60,0.00,,---,0.00,VWS V14.01,2013-05-15 07:05:00,
2013-05-15 03:06:00,56.0,42.3,30.01,East,95,0.0,0.0,60,0.00,,---,0.00,VWS V14.01,2013-05-15 07:06:00,
2013-05-15 03:10:00,56.0,42.8,30.01,South,184,0.0,0.0,61,0.00,,---,0.00,VWS V14.01,2013-05-15 07:10:00,
2013-05-15 03:11:00,56.0,43.2,30.01,South,184,0.0,0.0,62,0.00,,---,0.00,VWS V14.01,2013-05-15 07:11:00,
2013-05-15 03:15:00,55.9,43.1,30.01,South,185,0.0,0.0,62,0.00,,---,0.00,VWS V14.01,2013-05-15 07:15:00,
2013-05-15 03:16:00,55.9,43.1,30.01,South,185,0.0,0.0,62,0.00,,---,0.00,VWS V14.01,2013-05-15 07:16:00,
2013-05-15 03:20:00,55.9,43.1,30.01,SSE,161,0.0,0.0,62,0.00,,---,0.00,VWS V14.01,2013-05-15 07:20:00,
2013-05-15 03:21:00,55.9,43.1,30.01,SSE,161,0.0,0.0,62,0.00,,---,0.00,VWS V14.01,2013-05-15 07:21:00,
2013-05-15 03:25:00,55.7,43.3,30.01,SSE,158,0.0,0.0,63,0.00,,---,0.00,VWS V14.01,2013-05-15 07:25:00,
2013-05-15 03:26:00,55.7,43.3,30.01,SSE,158,0.0,0.0,63,0.00,,---,0.00,VWS V14.01,2013-05-15 07:26:00,
2013-05-15 03:30:00,55.7,43.3,30.00,SSE,155,0.0,0.0,63,0.00,,---,0.00,VWS V14.01,2013-05-15 07:30:00,
2013-05-15 03:31:00,55.7,43.3,30.00,SSE,155,0.0,0.0,63,0.00,,---,0.00,VWS V14.01,2013-05-15 07:31:00,
2013-05-15 03:35:00,55.7,43.7,30.00,South,172,0.0,1.0,64,0.00,,---,0.00,VWS V14.01,2013-05-15 07:35:00,
2013-05-15 03:36:00,55.7,43.7,30.00,South,172,0.0,0.0,64,0.00,,---,0.00,VWS V14.01,2013-05-15 07:36:00,
2013-05-15 03:40:00,55.7,43.7,30.00,SE,133,0.0,2.0,64,0.00,,---,0.00,VWS V14.01,2013-05-15 07:40:00,
2013-05-15 03:41:00,55.7,43.7,30.00,SE,133,0.0,0.0,64,0.00,,---,0.00,VWS V14.01,2013-05-15 07:41:00,
2013-05-15 03:45:00,55.7,43.7,30.00,SE,127,0.0,2.0,64,0.00,,---,0.00,VWS V14.01,2013-05-15 07:45:00,
2013-05-15 03:46:00,55.7,43.7,30.00,SE,127,0.0,0.0,64,0.00,,---,0.00,VWS V14.01,2013-05-15 07:46:00,
2013-05-15 03:50:00,55.6,44.0,30.00,SSE,158,0.0,0.0,65,0.00,,---,0.00,VWS V14.01,2013-05-15 07:50:00,
2013-05-15 03:51:00,55.6,44.0,30.00,SSE,151,3.0,3.0,65,0.00,,---,0.00,VWS V14.01,2013-05-15 07:51:00,
2013-05-15 03:55:00,55.6,44.0,30.00,SSE,154,0.0,3.0,65,0.00,,---,0.00,VWS V14.01,2013-05-15 07:55:00,
2013-05-15 03:56:00,55.6,44.0,30.00,SSE,154,0.0,0.0,65,0.00,,---,0.00,VWS V14.01,2013-05-15 07:56:00,
2013-05-15 04:00:00,55.6,44.0,30.00,SE,133,0.0,0.0,65,0.00,,---,0.00,VWS V14.01,2013-05-15 08:00:00,
2013-05-15 04:01:00,55.6,44.0,30.00,SE,131,0.0,1.0,65,0.00,,---,0.00,VWS V14.01,2013-05-15 08:01:00,
2013-05-15 04:05:00,55.6,44.0,30.00,SSE,148,0.0,1.0,65,0.00,,---,0.00,VWS V14.01,2013-05-15 08:05:00,
2013-05-15 04:06:00,55.6,44.0,30.00,SSE,148,0.0,0.0,65,0.00,,---,0.00,VWS V14.01,2013-05-15 08:06:00,
2013-05-15 04:10:00,55.6,44.4,30.00,SE,130,0.0,2.0,66,0.00,,---,0.00,VWS V14.01,2013-05-15 08:10:00,
2013-05-15 04:11:00,55.6,44.4,30.00,SE,130,0.0,0.0,66,0.00,,---,0.00,VWS V14.01,2013-05-15 08:11:00,
2013-05-15 04:15:00,55.6,44.8,29.99,ESE,110,0.0,5.0,67,0.00,,---,0.00,VWS V14.01,2013-05-15 08:15:00,
2013-05-15 04:16:00,55.6,44.8,29.99,ESE,110,0.0,0.0,67,0.00,,---,0.00,VWS V14.01,2013-05-15 08:16:00,
2013-05-15 04:20:00,55.6,44.8,29.99,ESE,107,0.0,0.0,67,0.00,,---,0.00,VWS V14.01,2013-05-15 08:20:00,
2013-05-15 04:21:00,55.6,44.8,29.99,ESE,107,0.0,0.0,67,0.00,,---,0.00,VWS V14.01,2013-05-15 08:21:00,
2013-05-15 04:25:00,55.7,44.9,29.99,SSW,196,0.0,1.0,67,0.00,,---,0.00,VWS V14.01,2013-05-15 08:25:00,
2013-05-15 04:26:00,55.7,44.9,29.99,SSW,196,0.0,0.0,67,0.00,,---,0.00,VWS V14.01,2013-05-15 08:26:00,
2013-05-15 04:30:00,55.7,45.3,29.99,SW,224,0.0,1.0,68,0.00,,---,0.00,VWS V14.01,2013-05-15 08:30:00,
2013-05-15 04:31:00,55.7,45.3,29.99,SE,134,1.0,1.0,68,0.00,,---,0.00,VWS V14.01,2013-05-15 08:31:00,
2013-05-15 04:35:00,55.7,45.3,29.99,ESE,120,0.0,1.0,68,0.00,,---,0.00,VWS V14.01,2013-05-15 08:35:00,
2013-05-15 04:36:00,55.7,45.3,29.99,ESE,120,0.0,0.0,68,0.00,,---,0.00,VWS V14.01,2013-05-15 08:36:00,
2013-05-15 04:40:00,55.9,45.1,29.99,ESE,112,0.0,3.0,67,0.00,,---,0.00,VWS V14.01,2013-05-15 08:40:00,
2013-05-15 04:41:00,55.9,45.5,29.99,SE,144,0.0,0.0,68,0.00,,---,0.00,VWS V14.01,2013-05-15 08:41:00,
2013-05-15 04:45:00,56.0,45.6,29.99,SSE,158,0.0,0.0,68,0.00,,---,0.00,VWS V14.01,2013-05-15 08:45:00,
2013-05-15 04:46:00,56.0,45.6,29.99,SSE,158,0.0,0.0,68,0.00,,---,0.00,VWS V14.01,2013-05-15 08:46:00,
2013-05-15 04:50:00,56.0,45.6,29.99,SE,143,0.0,0.0,68,0.00,,---,0.00,VWS V14.01,2013-05-15 08:50:00,
2013-05-15 04:51:00,56.0,45.6,29.99,SE,143,0.0,0.0,68,0.00,,---,0.00,VWS V14.01,2013-05-15 08:51:00,
2013-05-15 04:55:00,56.0,46.0,29.99,SE,144,0.0,0.0,69,0.00,,---,0.00,VWS V14.01,2013-05-15 08:55:00,
2013-05-15 04:56:00,56.0,46.0,29.99,SE,144,0.0,0.0,69,0.00,,---,0.00,VWS V14.01,2013-05-15 08:56:00,
2013-05-15 05:00:00,56.0,46.4,30.00,SE,144,0.0,0.0,70,0.00,,---,0.00,VWS V14.01,2013-05-15 09:00:00,
2013-05-15 05:01:00,56.0,46.4,30.00,SE,144,0.0,0.0,70,0.00,,---,0.00,VWS V14.01,2013-05-15 09:01:00,
2013-05-15 05:06:00,56.0,46.4,30.00,SE,134,0.0,0.0,70,0.00,,---,0.00,VWS V14.01,2013-05-15 09:06:00,
2013-05-15 05:10:00,56.2,46.6,30.00,ESE,106,0.0,0.0,70,0.00,,---,0.00,VWS V14.01,2013-05-15 09:10:00,
2013-05-15 05:11:00,56.2,46.6,30.00,ESE,109,0.0,0.0,70,0.00,,---,0.00,VWS V14.01,2013-05-15 09:11:00,
2013-05-15 05:15:00,56.2,46.6,30.00,SE,138,0.0,2.0,70,0.00,,---,0.00,VWS V14.01,2013-05-15 09:15:00,
2013-05-15 05:16:00,56.2,46.6,30.00,SE,138,0.0,0.0,70,0.00,,---,0.00,VWS V14.01,2013-05-15 09:16:00,
2013-05-15 05:20:00,56.2,46.9,30.00,SSE,165,1.0,1.0,71,0.00,,---,0.00,VWS V14.01,2013-05-15 09:20:00,
2013-05-15 05:21:00,56.2,46.6,30.00,SSE,165,0.0,1.0,70,0.00,,---,0.00,VWS V14.01,2013-05-15 09:21:00,
2013-05-15 05:25:00,56.2,46.6,30.00,SE,126,2.0,2.0,70,0.00,,---,0.00,VWS V14.01,2013-05-15 09:25:00,
2013-05-15 05:26:00,56.2,46.6,30.00,SE,128,0.0,2.0,70,0.00,,---,0.00,VWS V14.01,2013-05-15 09:26:00,
2013-05-15 05:30:00,56.3,46.7,30.00,WSW,244,0.0,3.0,70,0.00,,---,0.00,VWS V14.01,2013-05-15 09:30:00,
2013-05-15 05:31:00,56.3,46.7,30.00,SSE,151,0.0,0.0,70,0.00,,---,0.00,VWS V14.01,2013-05-15 09:31:00,
2013-05-15 05:35:00,56.5,46.8,30.00,SSE,147,0.0,0.0,70,0.00,,---,0.00,VWS V14.01,2013-05-15 09:35:00,
2013-05-15 05:36:00,56.5,46.8,30.00,SSE,147,0.0,0.0,70,0.00,,---,0.00,VWS V14.01,2013-05-15 09:36:00,
2013-05-15 05:40:00,56.5,47.2,30.00,SSE,147,0.0,0.0,71,0.00,,---,0.00,VWS V14.01,2013-05-15 09:40:00,
2013-05-15 05:41:00,56.5,47.2,30.00,SSE,147,0.0,0.0,71,0.00,,---,0.00,VWS V14.01,2013-05-15 09:41:00,
2013-05-15 05:45:00,56.5,47.2,30.00,SSE,147,0.0,0.0,71,0.00,,---,0.00,VWS V14.01,2013-05-15 09:45:00,
2013-05-15 05:46:00,56.5,47.2,30.00,SSE,147,0.0,0.0,71,0.00,,---,0.00,VWS V14.01,2013-05-15 09:46:00,
2013-05-15 05:50:00,56.5,47.2,30.00,SSE,155,3.0,3.0,71,0.00,,---,0.00,VWS V14.01,2013-05-15 09:50:00,
2013-05-15 05:51:00,56.5,47.2,30.00,SE,128,2.0,3.0,71,0.00,,---,0.00,VWS V14.01,2013-05-15 09:51:00,
2013-05-15 05:55:00,56.5,47.2,30.00,SSE,161,0.0,3.0,71,0.00,,---,0.00,VWS V14.01,2013-05-15 09:55:00,
2013-05-15 05:56:00,56.5,47.2,30.00,East,97,2.0,2.0,71,0.00,,---,0.00,VWS V14.01,2013-05-15 09:56:00,
2013-05-15 06:00:00,56.5,47.2,30.00,SE,145,0.0,2.0,71,0.00,,---,0.00,VWS V14.01,2013-05-15 10:00:00,
2013-05-15 06:01:00,56.5,47.2,30.00,SE,145,0.0,0.0,71,0.00,,---,0.00,VWS V14.01,2013-05-15 10:01:00,
2013-05-15 06:05:00,56.5,47.2,30.00,SE,145,0.0,0.0,71,0.00,,---,0.00,VWS V14.01,2013-05-15 10:05:00,
2013-05-15 06:06:00,56.5,47.2,30.00,SE,145,0.0,0.0,71,0.00,,---,0.00,VWS V14.01,2013-05-15 10:06:00,
2013-05-15 06:10:00,56.5,47.6,30.00,SE,136,0.0,1.0,72,0.00,,---,0.00,VWS V14.01,2013-05-15 10:10:00,
2013-05-15 06:11:00,56.5,47.6,30.00,SE,136,0.0,0.0,72,0.00,,---,0.00,VWS V14.01,2013-05-15 10:11:00,
2013-05-15 06:16:00,56.5,47.6,30.00,SE,136,0.0,0.0,72,0.00,,---,0.00,VWS V14.01,2013-05-15 10:16:00,
2013-05-15 06:20:00,56.5,47.6,30.00,SE,136,0.0,0.0,72,0.00,,---,0.00,VWS V14.01,2013-05-15 10:20:00,
2013-05-15 06:21:00,56.5,47.6,30.00,SE,124,0.0,0.0,72,0.00,,---,0.00,VWS V14.01,2013-05-15 10:21:00,
2013-05-15 06:25:00,56.5,47.6,30.00,SE,124,0.0,0.0,72,0.00,,---,0.00,VWS V14.01,2013-05-15 10:25:00,
2013-05-15 06:26:00,56.5,47.6,30.00,ESE,123,0.0,0.0,72,0.00,,---,0.00,VWS V14.01,2013-05-15 10:26:00,
2013-05-15 06:30:00,56.5,47.6,30.00,South,171,0.0,2.0,72,0.00,,---,0.00,VWS V14.01,2013-05-15 10:30:00,
2013-05-15 06:31:00,56.5,47.6,30.00,South,171,0.0,0.0,72,0.00,,---,0.00,VWS V14.01,2013-05-15 10:31:00,
2013-05-15 06:35:00,56.6,47.7,30.00,South,169,0.0,0.0,72,0.00,,---,0.00,VWS V14.01,2013-05-15 10:35:00,
2013-05-15 06:36:00,56.6,47.7,30.00,South,169,0.0,0.0,72,0.00,,---,0.00,VWS V14.01,2013-05-15 10:36:00,
2013-05-15 06:40:00,56.7,47.4,30.00,SSE,165,0.0,0.0,71,0.00,,---,0.00,VWS V14.01,2013-05-15 10:40:00,
2013-05-15 06:41:00,56.7,47.4,30.00,SSE,165,0.0,0.0,71,0.00,,---,0.00,VWS V14.01,2013-05-15 10:41:00,
2013-05-15 06:45:00,56.7,48.2,30.00,SSE,165,0.0,0.0,73,0.00,,---,0.00,VWS V14.01,2013-05-15 10:45:00,
2013-05-15 06:46:00,56.7,48.2,30.00,SSE,165,0.0,0.0,73,0.00,,---,0.00,VWS V14.01,2013-05-15 10:46:00,
2013-05-15 06:50:00,56.7,47.8,30.00,SE,145,0.0,2.0,72,0.00,,---,0.00,VWS V14.01,2013-05-15 10:50:00,
2013-05-15 06:51:00,56.7,47.8,30.00,SE,145,0.0,0.0,72,0.00,,---,0.00,VWS V14.01,2013-05-15 10:51:00,
2013-05-15 06:55:00,56.9,48.0,30.00,SE,145,0.0,0.0,72,0.00,,---,0.00,VWS V14.01,2013-05-15 10:55:00,
2013-05-15 06:56:00,56.9,48.0,30.00,SE,145,0.0,0.0,72,0.00,,---,0.00,VWS V14.01,2013-05-15 10:56:00,
2013-05-15 07:00:00,57.0,48.1,30.00,SE,145,0.0,0.0,72,0.00,,---,0.00,VWS V14.01,2013-05-15 11:00:00,
2013-05-15 07:01:00,57.0,48.1,30.00,SE,145,0.0,0.0,72,0.00,,---,0.00,VWS V14.01,2013-05-15 11:01:00,
2013-05-15 07:05:00,57.0,48.1,30.00,East,86,0.0,2.0,72,0.00,,---,0.00,VWS V14.01,2013-05-15 11:05:00,
2013-05-15 07:06:00,57.0,48.1,30.00,East,86,0.0,0.0,72,0.00,,---,0.00,VWS V14.01,2013-05-15 11:06:00,
2013-05-15 07:10:00,57.3,48.4,30.00,East,86,0.0,0.0,72,0.00,,---,0.00,VWS V14.01,2013-05-15 11:10:00,
2013-05-15 07:11:00,57.3,48.4,30.00,East,86,0.0,0.0,72,0.00,,---,0.00,VWS V14.01,2013-05-15 11:11:00,
2013-05-15 07:15:00,57.5,48.2,30.01,East,89,0.0,1.0,71,0.00,,---,0.00,VWS V14.01,2013-05-15 11:15:00,
2013-05-15 07:16:00,57.5,48.2,30.01,East,89,0.0,0.0,71,0.00,,---,0.00,VWS V14.01,2013-05-15 11:16:00,
2013-05-15 07:20:00,57.6,48.7,30.01,East,89,0.0,0.0,72,0.00,,---,0.00,VWS V14.01,2013-05-15 11:20:00,
2013-05-15 07:21:00,57.6,48.7,30.01,East,89,0.0,0.0,72,0.00,,---,0.00,VWS V14.01,2013-05-15 11:21:00,
2013-05-15 07:25:00,58.0,48.7,30.01,East,89,0.0,0.0,71,0.00,,---,0.00,VWS V14.01,2013-05-15 11:25:00,
2013-05-15 07:26:00,58.0,48.7,30.01,East,89,0.0,0.0,71,0.00,,---,0.00,VWS V14.01,2013-05-15 11:26:00,
2013-05-15 07:30:00,58.4,48.7,30.01,East,89,0.0,1.0,70,0.00,,---,0.00,VWS V14.01,2013-05-15 11:30:00,
2013-05-15 07:31:00,58.4,48.7,30.01,East,89,0.0,0.0,70,0.00,,---,0.00,VWS V14.01,2013-05-15 11:31:00,
2013-05-15 07:35:00,58.9,48.4,30.01,ESE,114,0.0,3.0,68,0.00,,---,0.00,VWS V14.01,2013-05-15 11:35:00,
2013-05-15 07:36:00,58.9,49.2,30.01,ESE,114,0.0,0.0,70,0.00,,---,0.00,VWS V14.01,2013-05-15 11:36:00,
2013-05-15 07:40:00,59.2,49.0,30.01,ENE,65,0.0,0.0,69,0.00,,---,0.00,VWS V14.01,2013-05-15 11:40:00,
2013-05-15 07:41:00,59.2,49.0,30.01,ENE,65,0.0,0.0,69,0.00,,---,0.00,VWS V14.01,2013-05-15 11:41:00,
2013-05-15 07:45:00,59.3,48.8,30.01,ENE,65,0.0,0.0,68,0.00,,---,0.00,VWS V14.01,2013-05-15 11:45:00,
2013-05-15 07:46:00,59.3,48.4,30.01,ENE,65,0.0,0.0,67,0.00,,---,0.00,VWS V14.01,2013-05-15 11:46:00,
2013-05-15 07:51:00,59.5,49.7,30.01,East,89,0.0,2.0,70,0.00,,---,0.00,VWS V14.01,2013-05-15 11:51:00,
2013-05-15 07:55:00,59.6,49.0,30.01,East,82,0.0,4.0,68,0.00,,---,0.00,VWS V14.01,2013-05-15 11:55:00,
2013-05-15 07:56:00,59.6,49.0,30.01,East,82,0.0,0.0,68,0.00,,---,0.00,VWS V14.01,2013-05-15 11:56:00,
2013-05-15 08:00:00,59.9,48.5,30.00,NNE,31,0.0,4.0,66,0.00,,---,0.00,VWS V14.01,2013-05-15 12:00:00,
2013-05-15 08:01:00,59.9,48.5,30.00,NNE,31,0.0,0.0,66,0.00,,---,0.00,VWS V14.01,2013-05-15 12:01:00,
2013-05-15 08:05:00,60.1,49.1,30.00,NNE,32,0.0,0.0,67,0.00,,---,0.00,VWS V14.01,2013-05-15 12:05:00,
2013-05-15 08:06:00,60.2,49.2,30.00,NNE,32,0.0,0.0,67,0.00,,---,0.00,VWS V14.01,2013-05-15 12:06:00,
2013-05-15 08:10:00,60.4,49.0,30.00,NE,56,0.0,2.0,66,0.00,,---,0.00,VWS V14.01,2013-05-15 12:10:00,
2013-05-15 08:11:00,60.4,49.0,30.00,ENE,59,0.0,0.0,66,0.00,,---,0.00,VWS V14.01,2013-05-15 12:11:00,
2013-05-15 08:15:00,60.7,49.3,30.00,ENE,61,0.0,1.0,66,0.00,,---,0.00,VWS V14.01,2013-05-15 12:15:00,
2013-05-15 08:17:00,60.7,49.7,30.00,ENE,64,0.0,1.0,67,0.00,,---,0.00,VWS V14.01,2013-05-15 12:17:00,
2013-05-15 08:20:00,61.0,48.8,30.00,ENE,76,0.0,1.0,64,0.00,,---,0.00,VWS V14.01,2013-05-15 12:20:00,
2013-05-15 08:22:00,61.0,49.2,30.00,ENE,75,0.0,1.0,65,0.00,,---,0.00,VWS V14.01,2013-05-15 12:22:00,
2013-05-15 08:25:00,61.3,49.5,30.00,ENE,59,0.0,1.0,65,0.00,,---,0.00,VWS V14.01,2013-05-15 12:25:00,
2013-05-15 08:27:00,61.3,49.5,30.00,SE,136,0.0,0.0,65,0.00,,---,0.00,VWS V14.01,2013-05-15 12:27:00,
2013-05-15 08:30:00,61.5,49.6,30.00,East,82,0.0,0.0,65,0.00,,---,0.00,VWS V14.01,2013-05-15 12:30:00,
2013-05-15 08:32:00,61.6,49.7,30.00,East,82,0.0,0.0,65,0.00,,---,0.00,VWS V14.01,2013-05-15 12:32:00,
2013-05-15 08:35:00,62.0,50.1,30.00,NNE,30,0.0,1.0,65,0.00,,---,0.00,VWS V14.01,2013-05-15 12:35:00,
2013-05-15 08:37:00,62.0,50.1,30.00,SE,145,0.0,0.0,65,0.00,,---,0.00,VWS V14.01,2013-05-15 12:37:00,
2013-05-15 08:40:00,62.3,50.4,30.00,SE,133,0.0,0.0,65,0.00,,---,0.00,VWS V14.01,2013-05-15 12:40:00,
2013-05-15 08:42:00,62.3,49.6,30.00,ESE,119,0.0,0.0,63,0.00,,---,0.00,VWS V14.01,2013-05-15 12:42:00,
2013-05-15 08:45:00,62.6,49.8,30.00,ESE,104,0.0,3.0,63,0.00,,---,0.00,VWS V14.01,2013-05-15 12:45:00,
2013-05-15 08:47:00,62.7,50.4,30.00,ESE,104,0.0,0.0,64,0.00,,---,0.00,VWS V14.01,2013-05-15 12:47:00,
2013-05-15 08:50:00,62.9,50.5,30.00,ESE,103,0.0,2.0,64,0.00,,---,0.00,VWS V14.01,2013-05-15 12:50:00,
2013-05-15 08:52:00,63.1,50.3,30.00,East,99,0.0,0.0,63,0.00,,---,0.00,VWS V14.01,2013-05-15 12:52:00,
2013-05-15 08:55:00,63.2,50.4,30.00,East,99,0.0,3.0,63,0.00,,---,0.00,VWS V14.01,2013-05-15 12:55:00,
2013-05-15 08:57:00,63.4,50.6,30.00,East,99,0.0,0.0,63,0.00,,---,0.00,VWS V14.01,2013-05-15 12:57:00,
2013-05-15 09:00:00,63.7,51.3,30.00,East,99,0.0,1.0,64,0.00,,---,0.00,VWS V14.01,2013-05-15 13:00:00,
2013-05-15 09:03:00,63.7,51.3,30.00,East,99,0.0,0.0,64,0.00,,---,0.00,VWS V14.01,2013-05-15 13:03:00,
2013-05-15 09:08:00,64.2,51.4,30.00,East,88,0.0,0.0,63,0.00,,---,0.00,VWS V14.01,2013-05-15 13:08:00,
2013-05-15 09:10:00,64.3,51.0,30.00,East,97,0.0,2.0,62,0.00,,---,0.00,VWS V14.01,2013-05-15 13:10:00,
2013-05-15 09:13:00,64.5,51.2,30.00,ESE,102,0.0,2.0,62,0.00,,---,0.00,VWS V14.01,2013-05-15 13:13:00,
2013-05-15 09:15:00,64.8,51.9,30.00,East,100,0.0,2.0,63,0.00,,---,0.00,VWS V14.01,2013-05-15 13:15:00,
2013-05-15 09:18:00,65.0,51.7,30.00,ESE,102,0.0,0.0,62,0.00,,---,0.00,VWS V14.01,2013-05-15 13:18:00,
2013-05-15 09:20:00,65.2,51.9,30.00,ENE,68,0.0,0.0,62,0.00,,---,0.00,VWS V14.01,2013-05-15 13:20:00,
2013-05-15 09:23:00,65.3,51.5,30.00,ENE,65,0.0,1.0,61,0.00,,---,0.00,VWS V14.01,2013-05-15 13:23:00,
2013-05-15 09:25:00,65.6,51.8,30.00,ENE,59,0.0,1.0,61,0.00,,---,0.00,VWS V14.01,2013-05-15 13:25:00,
2013-05-15 09:28:00,66.0,51.3,30.00,ESE,114,0.0,5.0,59,0.00,,---,0.00,VWS V14.01,2013-05-15 13:28:00,
2013-05-15 09:30:00,66.3,52.5,30.00,ESE,114,0.0,5.0,61,0.00,,---,0.00,VWS V14.01,2013-05-15 13:30:00,
2013-05-15 09:33:00,66.4,52.1,30.00,ESE,114,0.0,0.0,60,0.00,,---,0.00,VWS V14.01,2013-05-15 13:33:00,
2013-05-15 09:35:00,66.8,52.5,30.00,ESE,114,0.0,0.0,60,0.00,,---,0.00,VWS V14.01,2013-05-15 13:35:00,
2013-05-15 09:38:00,67.1,52.8,30.00,ESE,110,0.0,0.0,60,0.00,,---,0.00,VWS V14.01,2013-05-15 13:38:00,
2013-05-15 09:40:00,67.3,53.0,30.00,ENE,69,0.0,0.0,60,0.00,,---,0.00,VWS V14.01,2013-05-15 13:40:00,
2013-05-15 09:43:00,67.6,53.2,30.00,ENE,71,0.0,0.0,60,0.00,,---,0.00,VWS V14.01,2013-05-15 13:43:00,
2013-05-15 09:45:00,67.9,53.5,29.99,SE,144,0.0,0.0,60,0.00,,---,0.00,VWS V14.01,2013-05-15 13:45:00,
2013-05-15 09:48:00,68.1,53.7,29.99,SE,144,0.0,0.0,60,0.00,,---,0.00,VWS V14.01,2013-05-15 13:48:00,
2013-05-15 09:50:00,68.3,53.0,29.99,ESE,112,0.0,0.0,58,0.00,,---,0.00,VWS V14.01,2013-05-15 13:50:00,
2013-05-15 09:53:00,68.6,53.7,29.99,East,96,0.0,2.0,59,0.00,,---,0.00,VWS V14.01,2013-05-15 13:53:00,
2013-05-15 09:55:00,68.8,53.0,29.99,East,99,0.0,2.0,57,0.00,,---,0.00,VWS V14.01,2013-05-15 13:55:00,
2013-05-15 09:58:00,68.8,53.4,29.99,East,99,0.0,1.0,58,0.00,,---,0.00,VWS V14.01,2013-05-15 13:58:00,
2013-05-15 10:00:00,68.8,53.9,29.99,ENE,75,0.0,1.0,59,0.00,,---,0.00,VWS V14.01,2013-05-15 14:00:00,
2013-05-15 10:03:00,68.8,53.4,29.99,ENE,75,0.0,0.0,58,0.00,,---,0.00,VWS V14.01,2013-05-15 14:03:00,
2013-05-15 10:09:00,68.8,53.4,29.99,ENE,61,0.0,0.0,58,0.00,,---,0.00,VWS V14.01,2013-05-15 14:09:00,
2013-05-15 10:10:00,68.6,53.2,29.99,ESE,114,0.0,2.0,58,0.00,,---,0.00,VWS V14.01,2013-05-15 14:10:00,
2013-05-15 10:14:00,68.1,52.3,29.99,ESE,104,0.0,1.0,57,0.00,,---,0.00,VWS V14.01,2013-05-15 14:14:00,
2013-05-15 10:15:00,67.9,51.6,29.99,SSE,147,0.0,1.0,56,0.00,,---,0.00,VWS V14.01,2013-05-15 14:15:00,
2013-05-15 10:19:00,67.9,52.6,29.99,ESE,106,0.0,3.0,58,0.00,,---,0.00,VWS V14.01,2013-05-15 14:19:00,
2013-05-15 10:20:00,67.9,53.5,29.99,ESE,106,0.0,3.0,60,0.00,,---,0.00,VWS V14.01,2013-05-15 14:20:00,
2013-05-15 10:24:00,67.9,53.1,29.99,ESE,103,0.0,2.0,59,0.00,,---,0.00,VWS V14.01,2013-05-15 14:24:00,
2013-05-15 10:25:00,67.8,53.0,29.99,ESE,103,0.0,2.0,59,0.00,,---,0.00,VWS V14.01,2013-05-15 14:25:00,
2013-05-15 10:29:00,68.1,53.7,29.99,East,83,0.0,1.0,60,0.00,,---,0.00,VWS V14.01,2013-05-15 14:29:00,
2013-05-15 10:30:00,68.1,53.2,30.00,East,83,0.0,1.0,59,0.00,,---,0.00,VWS V14.01,2013-05-15 14:30:00,
2013-05-15 10:34:00,68.3,53.4,30.00,ENE,78,0.0,3.0,59,0.00,,---,0.00,VWS V14.01,2013-05-15 14:34:00,
2013-05-15 10:35:00,68.4,52.6,30.00,East,88,0.0,3.0,57,0.00,,---,0.00,VWS V14.01,2013-05-15 14:35:00,
2013-05-15 10:39:00,68.8,53.0,30.00,ESE,109,0.0,0.0,57,0.00,,---,0.00,VWS V14.01,2013-05-15 14:39:00,
2013-05-15 10:40:00,68.9,53.5,30.00,ESE,109,0.0,0.0,58,0.00,,---,0.00,VWS V14.01,2013-05-15 14:40:00,
2013-05-15 10:44:00,69.6,54.7,30.00,ESE,107,0.0,0.0,59,0.00,,---,0.00,VWS V14.01,2013-05-15 14:44:00,
2013-05-15 10:45:00,69.8,54.8,29.99,ESE,107,0.0,0.0,59,0.00,,---,0.00,VWS V14.01,2013-05-15 14:45:00,
2013-05-15 10:49:00,70.3,54.8,29.99,NE,34,0.0,1.0,58,0.00,,---,0.00,VWS V14.01,2013-05-15 14:49:00,
2013-05-15 10:54:00,70.8,55.3,29.99,NE,37,0.0,0.0,58,0.00,,---,0.00,VWS V14.01,2013-05-15 14:54:00,
2013-05-15 10:55:00,70.8,53.8,29.99,East,86,0.0,1.0,55,0.00,,---,0.00,VWS V14.01,2013-05-15 14:55:00,
2013-05-15 10:59:00,70.9,54.0,29.99,East,99,0.0,3.0,55,0.00,,---,0.00,VWS V14.01,2013-05-15 14:59:00,
2013-05-15 11:00:00,71.1,54.1,29.99,East,92,1.0,3.0,55,0.00,,---,0.00,VWS V14.01,2013-05-15 15:00:00,
2013-05-15 11:04:00,71.3,53.8,29.99,ESE,103,0.0,2.0,54,0.00,,---,0.00,VWS V14.01,2013-05-15 15:04:00,
2013-05-15 11:05:00,71.3,54.3,29.99,ESE,103,0.0,2.0,55,0.00,,---,0.00,VWS V14.01,2013-05-15 15:05:00,
2013-05-15 11:10:00,71.5,54.5,29.99,ESE,103,0.0,0.0,55,0.00,,---,0.00,VWS V14.01,2013-05-15 15:10:00,
2013-05-15 11:15:00,71.8,55.3,29.99,NE,34,0.0,0.0,56,0.00,,---,0.00,VWS V14.01,2013-05-15 15:15:00,
2013-05-15 11:20:00,72.3,55.7,29.99,ENE,71,0.0,0.0,56,0.00,,---,0.00,VWS V14.01,2013-05-15 15:20:00,
2013-05-15 11:25:00,72.7,56.1,29.99,ENE,71,0.0,0.0,56,0.00,,---,0.00,VWS V14.01,2013-05-15 15:25:00,
2013-05-15 11:30:00,73.5,55.9,29.98,ENE,62,0.0,0.0,54,0.00,,---,0.00,VWS V14.01,2013-05-15 15:30:00,
2013-05-15 11:35:00,74.6,56.4,29.98,NNE,18,0.0,0.0,53,0.00,,---,0.00,VWS V14.01,2013-05-15 15:35:00,
2013-05-15 11:40:00,74.7,54.8,29.98,SSE,162,0.0,2.0,50,0.00,,---,0.00,VWS V14.01,2013-05-15 15:40:00,
2013-05-15 11:45:00,75.3,57.0,29.98,East,88,0.0,4.0,53,0.00,,---,0.00,VWS V14.01,2013-05-15 15:45:00,
2013-05-15 11:50:00,76.0,56.6,29.98,NNE,18,0.0,1.0,51,0.00,,---,0.00,VWS V14.01,2013-05-15 15:50:00,
2013-05-15 11:55:00,76.7,57.2,29.98,NNE,18,0.0,0.0,51,0.00,,---,0.00,VWS V14.01,2013-05-15 15:55:00,
2013-05-15 12:00:00,77.6,57.5,29.97,SE,143,0.0,2.0,50,0.00,,---,0.00,VWS V14.01,2013-05-15 16:00:00,
2013-05-15 12:05:00,77.0,56.4,29.97,East,90,0.0,3.0,49,0.00,,---,0.00,VWS V14.01,2013-05-15 16:05:00,
2013-05-15 12:10:00,77.4,57.3,29.97,NE,41,0.0,2.0,50,0.00,,---,0.00,VWS V14.01,2013-05-15 16:10:00,
2013-05-15 12:15:00,77.6,58.1,29.97,ESE,121,0.0,2.0,51,0.00,,---,0.00,VWS V14.01,2013-05-15 16:15:00,
2013-05-15 12:16:00,77.6,58.1,29.97,ESE,121,0.0,0.0,51,0.00,,---,0.00,VWS V14.01,2013-05-15 16:16:00,
2013-05-15 12:20:00,77.7,57.6,29.97,East,83,0.0,3.0,50,0.00,,---,0.00,VWS V14.01,2013-05-15 16:20:00,
2013-05-15 12:21:00,77.7,57.6,29.97,East,83,0.0,3.0,50,0.00,,---,0.00,VWS V14.01,2013-05-15 16:21:00,
2013-05-15 12:25:00,78.3,57.6,29.97,East,80,0.0,0.0,49,0.00,,---,0.00,VWS V14.01,2013-05-15 16:25:00,
2013-05-15 12:26:00,78.3,57.6,29.97,East,80,0.0,0.0,49,0.00,,---,0.00,VWS V14.01,2013-05-15 16:26:00,
2013-05-15 12:30:00,78.5,57.2,29.96,East,83,0.0,1.0,48,0.00,,---,0.00,VWS V14.01,2013-05-15 16:30:00,
2013-05-15 12:31:00,78.5,57.2,29.96,East,83,0.0,1.0,48,0.00,,---,0.00,VWS V14.01,2013-05-15 16:31:00,
2013-05-15 12:35:00,79.4,58.0,29.96,East,82,0.0,0.0,48,0.00,,---,0.00,VWS V14.01,2013-05-15 16:35:00,
2013-05-15 12:36:00,79.4,58.0,29.96,East,82,0.0,0.0,48,0.00,,---,0.00,VWS V14.01,2013-05-15 16:36:00,
2013-05-15 12:40:00,79.9,58.5,29.96,NNE,24,0.0,0.0,48,0.00,,---,0.00,VWS V14.01,2013-05-15 16:40:00,
2013-05-15 12:41:00,80.1,58.7,29.96,NNE,24,0.0,0.0,48,0.00,,---,0.00,VWS V14.01,2013-05-15 16:41:00,
2013-05-15 12:45:00,80.3,57.7,29.96,East,95,0.0,1.0,46,0.00,,---,0.00,VWS V14.01,2013-05-15 16:45:00,
2013-05-15 12:46:00,80.3,57.7,29.96,East,95,0.0,0.0,46,0.00,,---,0.00,VWS V14.01,2013-05-15 16:46:00,
2013-05-15 12:50:00,80.3,58.8,29.96,ESE,107,0.0,6.0,48,0.00,,---,0.00,VWS V14.01,2013-05-15 16:50:00,
2013-05-15 12:51:00,80.3,58.8,29.96,ESE,107,0.0,0.0,48,0.00,,---,0.00,VWS V14.01,2013-05-15 16:51:00,
2013-05-15 12:55:00,80.7,58.0,29.96,East,86,0.0,7.0,46,0.00,,---,0.00,VWS V14.01,2013-05-15 16:55:00,
2013-05-15 12:56:00,80.9,58.2,29.96,East,86,0.0,0.0,46,0.00,,---,0.00,VWS V14.01,2013-05-15 16:56:00,
2013-05-15 13:00:00,81.6,58.8,29.95,ENE,72,0.0,0.0,46,0.00,,---,0.00,VWS V14.01,2013-05-15 17:00:00,
2013-05-15 13:01:00,81.6,58.2,29.95,ESE,109,0.0,0.0,45,0.00,,---,0.00,VWS V14.01,2013-05-15 17:01:00,
2013-05-15 13:05:00,81.6,58.2,29.95,NE,49,0.0,0.0,45,0.00,,---,0.00,VWS V14.01,2013-05-15 17:05:00,
2013-05-15 13:06:00,81.6,58.8,29.95,NE,49,0.0,0.0,46,0.00,,---,0.00,VWS V14.01,2013-05-15 17:06:00,
2013-05-15 13:12:00,81.6,58.8,29.95,ENE,58,0.0,0.0,46,0.00,,---,0.00,VWS V14.01,2013-05-15 17:12:00,
2013-05-15 13:15:00,81.6,58.8,29.94,NE,38,0.0,0.0,46,0.00,,---,0.00,VWS V14.01,2013-05-15 17:15:00,
2013-05-15 13:17:00,81.6,59.4,29.94,East,93,2.0,2.0,47,0.00,,---,0.00,VWS V14.01,2013-05-15 17:17:00,
2013-05-15 13:20:00,82.2,60.0,29.94,ENE,58,0.0,4.0,47,0.00,,---,0.00,VWS V14.01,2013-05-15 17:20:00,
2013-05-15 13:22:00,82.4,58.3,29.94,ENE,59,0.0,0.0,44,0.00,,---,0.00,VWS V14.01,2013-05-15 17:22:00,
2013-05-15 13:25:00,82.8,58.7,29.94,ENE,73,0.0,1.0,44,0.00,,---,0.00,VWS V14.01,2013-05-15 17:25:00,
2013-05-15 13:27:00,83.0,58.2,29.94,North,0,0.0,0.0,43,0.00,,---,0.00,VWS V14.01,2013-05-15 17:27:00,
2013-05-15 13:30:00,83.6,58.1,29.93,East,79,0.0,0.0,42,0.00,,---,0.00,VWS V14.01,2013-05-15 17:30:00,
2013-05-15 13:32:00,83.8,57.6,29.93,South,188,0.0,0.0,41,0.00,,---,0.00,VWS V14.01,2013-05-15 17:32:00,
2013-05-15 13:35:00,84.1,57.9,29.93,North,0,0.0,1.0,41,0.00,,---,0.00,VWS V14.01,2013-05-15 17:35:00,
2013-05-15 13:37:00,84.3,58.1,29.93,NNE,14,0.0,0.0,41,0.00,,---,0.00,VWS V14.01,2013-05-15 17:37:00,
2013-05-15 13:40:00,84.7,57.7,29.93,East,88,0.0,0.0,40,0.00,,---,0.00,VWS V14.01,2013-05-15 17:40:00,
2013-05-15 13:42:00,84.9,59.3,29.93,East,88,0.0,0.0,42,0.00,,---,0.00,VWS V14.01,2013-05-15 17:42:00,
2013-05-15 13:47:00,85.3,57.6,29.93,NE,54,0.0,0.0,39,0.00,,---,0.00,VWS V14.01,2013-05-15 17:47:00,
2013-05-15 13:50:00,85.3,57.6,29.93,NE,35,0.0,0.0,39,0.00,,---,0.00,VWS V14.01,2013-05-15 17:50:00,
2013-05-15 13:52:00,85.5,57.0,29.93,West,274,0.0,3.0,38,0.00,,---,0.00,VWS V14.01,2013-05-15 17:52:00,
2013-05-15 13:57:00,85.9,58.8,29.93,SE,136,0.0,1.0,40,0.00,,---,0.00,VWS V14.01,2013-05-15 17:57:00,
2013-05-15 14:00:00,85.9,58.8,29.92,East,88,0.0,2.0,40,0.00,,---,0.00,VWS V14.01,2013-05-15 18:00:00,
2013-05-15 14:02:00,85.9,59.5,29.92,East,90,0.0,4.0,41,0.00,,---,0.00,VWS V14.01,2013-05-15 18:02:00,
2013-05-15 14:05:00,86.1,58.3,29.92,NNE,30,0.0,4.0,39,0.00,,---,0.00,VWS V14.01,2013-05-15 18:05:00,
2013-05-15 14:07:00,86.1,58.3,29.92,NNE,30,0.0,0.0,39,0.00,,---,0.00,VWS V14.01,2013-05-15 18:07:00,
2013-05-15 14:10:00,86.3,58.5,29.92,East,99,0.0,5.0,39,0.00,,---,0.00,VWS V14.01,2013-05-15 18:10:00,
2013-05-15 14:13:00,86.3,59.2,29.92,East,93,0.0,0.0,40,0.00,,---,0.00,VWS V14.01,2013-05-15 18:13:00,
2013-05-15 14:15:00,86.5,58.6,29.91,East,95,0.0,3.0,39,0.00,,---,0.00,VWS V14.01,2013-05-15 18:15:00,
2013-05-15 14:18:00,86.7,58.1,29.91,ESE,121,0.0,0.0,38,0.00,,---,0.00,VWS V14.01,2013-05-15 18:18:00,
2013-05-15 14:20:00,86.7,58.8,29.91,SE,140,0.0,2.0,39,0.00,,---,0.00,VWS V14.01,2013-05-15 18:20:00,
2013-05-15 14:23:00,87.0,56.8,29.91,ENE,65,0.0,0.0,36,0.00,,---,0.00,VWS V14.01,2013-05-15 18:23:00,
2013-05-15 14:25:00,87.2,58.5,29.91,ENE,58,0.0,2.0,38,0.00,,---,0.00,VWS V14.01,2013-05-15 18:25:00,
2013-05-15 14:28:00,87.2,57.0,29.91,East,92,0.0,0.0,36,0.00,,---,0.00,VWS V14.01,2013-05-15 18:28:00,
2013-05-15 14:30:00,87.2,57.8,29.91,East,85,2.0,2.0,37,0.00,,---,0.00,VWS V14.01,2013-05-15 18:30:00,
2013-05-15 14:33:00,87.2,58.5,29.91,East,88,0.0,2.0,38,0.00,,---,0.00,VWS V14.01,2013-05-15 18:33:00,
2013-05-15 14:38:00,87.0,56.8,29.91,East,90,0.0,2.0,36,0.00,,---,0.00,VWS V14.01,2013-05-15 18:38:00,
2013-05-15 14:40:00,87.0,57.6,29.91,SE,144,0.0,2.0,37,0.00,,---,0.00,VWS V14.01,2013-05-15 18:40:00,
2013-05-15 14:43:00,87.4,57.2,29.91,East,88,0.0,3.0,36,0.00,,---,0.00,VWS V14.01,2013-05-15 18:43:00,
2013-05-15 14:45:00,87.4,56.4,29.90,East,97,0.0,8.0,35,0.00,,---,0.00,VWS V14.01,2013-05-15 18:45:00,
2013-05-15 14:48:00,87.4,55.6,29.90,SE,134,0.0,3.0,34,0.00,,---,0.00,VWS V14.01,2013-05-15 18:48:00,
2013-05-15 14:50:00,87.6,57.4,29.90,North,6,0.0,3.0,36,0.00,,---,0.00,VWS V14.01,2013-05-15 18:50:00,
2013-05-15 14:54:00,87.8,56.8,29.90,ESE,123,0.0,2.0,35,0.00,,---,0.00,VWS V14.01,2013-05-15 18:54:00,
2013-05-15 14:55:00,87.8,56.0,29.90,NNE,24,0.0,2.0,34,0.00,,---,0.00,VWS V14.01,2013-05-15 18:55:00,
2013-05-15 14:59:00,88.0,57.7,29.90,North,0,0.0,0.0,36,0.00,,---,0.00,VWS V14.01,2013-05-15 18:59:00,
2013-05-15 15:00:00,88.0,57.7,29.90,East,99,1.0,1.0,36,0.00,,---,0.00,VWS V14.01,2013-05-15 19:00:00,
2013-05-15 15:04:00,88.0,57.7,29.90,NNE,27,0.0,1.0,36,0.00,,---,0.00,VWS V14.01,2013-05-15 19:04:00,
2013-05-15 15:05:00,88.0,57.7,29.90,NE,44,0.0,1.0,36,0.00,,---,0.00,VWS V14.01,2013-05-15 19:05:00,
2013-05-15 15:09:00,88.0,56.9,29.90,ENE,68,0.0,0.0,35,0.00,,---,0.00,VWS V14.01,2013-05-15 19:09:00,
2013-05-15 15:10:00,88.2,57.1,29.90,ENE,68,0.0,0.0,35,0.00,,---,0.00,VWS V14.01,2013-05-15 19:10:00,
2013-05-15 15:14:00,88.2,57.9,29.90,NE,51,0.0,0.0,36,0.00,,---,0.00,VWS V14.01,2013-05-15 19:14:00,
2013-05-15 15:15:00,88.2,58.7,29.89,NNW,333,0.0,0.0,37,0.00,,---,0.00,VWS V14.01,2013-05-15 19:15:00,
2013-05-15 15:19:00,88.0,56.9,29.89,ESE,116,0.0,5.0,35,0.00,,---,0.00,VWS V14.01,2013-05-15 19:19:00,
2013-05-15 15:20:00,87.8,56.8,29.89,East,85,0.0,6.0,35,0.00,,---,0.00,VWS V14.01,2013-05-15 19:20:00,
2013-05-15 15:24:00,87.4,56.4,29.89,ESE,120,2.0,6.0,35,0.00,,---,0.00,VWS V14.01,2013-05-15 19:24:00,
2013-05-15 15:25:00,87.4,57.2,29.89,ESE,121,2.0,6.0,36,0.00,,---,0.00,VWS V14.01,2013-05-15 19:25:00,
2013-05-15 15:29:00,87.0,56.8,29.89,ESE,113,0.0,3.0,36,0.00,,---,0.00,VWS V14.01,2013-05-15 19:29:00,
2013-05-15 15:30:00,87.0,57.6,29.88,NE,37,0.0,5.0,37,0.00,,---,0.00,VWS V14.01,2013-05-15 19:30:00,
2013-05-15 15:35:00,86.5,55.6,29.88,ESE,107,2.0,5.0,35,0.00,,---,0.00,VWS V14.01,2013-05-15 19:35:00,
2013-05-15 15:40:00,86.5,57.2,29.88,ESE,117,0.0,1.0,37,0.00,,---,0.00,VWS V14.01,2013-05-15 19:40:00,
2013-05-15 15:45:00,86.5,55.6,29.88,East,85,0.0,4.0,35,0.00,,---,0.00,VWS V14.01,2013-05-15 19:45:00,
2013-05-15 15:50:00,86.3,57.7,29.87,ESE,107,0.0,6.0,38,0.00,,---,0.00,VWS V14.01,2013-05-15 19:50:00,
2013-05-15 15:55:00,86.1,57.5,29.87,NE,49,0.0,0.0,38,0.00,,---,0.00,VWS V14.01,2013-05-15 19:55:00,
2013-05-15 16:00:00,86.1,58.3,29.87,NE,51,0.0,0.0,39,0.00,,---,0.00,VWS V14.01,2013-05-15 20:00:00,
2013-05-15 16:05:00,86.1,56.8,29.87,NE,52,0.0,0.0,37,0.00,,---,0.00,VWS V14.01,2013-05-15 20:05:00,
2013-05-15 16:10:00,86.3,57.7,29.87,ENE,76,0.0,4.0,38,0.00,,---,0.00,VWS V14.01,2013-05-15 20:10:00,
2013-05-15 16:15:00,86.3,58.5,29.86,ESE,102,0.0,0.0,39,0.00,,---,0.00,VWS V14.01,2013-05-15 20:15:00,
2013-05-15 16:20:00,86.5,57.2,29.86,East,95,0.0,3.0,37,0.00,,---,0.00,VWS V14.01,2013-05-15 20:20:00,
2013-05-15 16:25:00,86.3,57.0,29.86,East,80,0.0,3.0,37,0.00,,---,0.00,VWS V14.01,2013-05-15 20:25:00,
2013-05-15 16:30:00,86.3,58.5,29.86,NE,44,0.0,0.0,39,0.00,,---,0.00,VWS V14.01,2013-05-15 20:30:00,
2013-05-15 16:35:00,85.9,58.1,29.86,East,85,0.0,1.0,39,0.00,,---,0.00,VWS V14.01,2013-05-15 20:35:00,
2013-05-15 16:40:00,85.7,59.3,29.86,NE,42,0.0,2.0,41,0.00,,---,0.00,VWS V14.01,2013-05-15 20:40:00,
2013-05-15 16:45:00,85.7,57.9,29.86,ENE,59,0.0,4.0,39,0.00,,---,0.00,VWS V14.01,2013-05-15 20:45:00,
2013-05-15 16:50:00,85.5,58.5,29.86,East,88,0.0,0.0,40,0.00,,---,0.00,VWS V14.01,2013-05-15 20:50:00,
2013-05-15 16:55:00,85.5,57.0,29.86,SSE,161,0.0,1.0,38,0.00,,---,0.00,VWS V14.01,2013-05-15 20:55:00,
2013-05-15 17:00:00,85.5,57.7,29.85,ESE,113,0.0,6.0,39,0.00,,---,0.00,VWS V14.01,2013-05-15 21:00:00,
2013-05-15 17:01:00,85.5,57.7,29.85,ESE,113,0.0,6.0,39,0.00,,---,0.00,VWS V14.01,2013-05-15 21:01:00,
2013-05-15 17:05:00,85.5,57.7,29.85,ENE,59,0.0,6.0,39,0.00,,---,0.00,VWS V14.01,2013-05-15 21:05:00,
2013-05-15 17:06:00,85.5,57.7,29.85,ENE,59,0.0,6.0,39,0.00,,---,0.00,VWS V14.01,2013-05-15 21:06:00,
2013-05-15 17:10:00,85.3,57.6,29.85,East,79,0.0,6.0,39,0.00,,---,0.00,VWS V14.01,2013-05-15 21:10:00,
2013-05-15 17:11:00,85.3,57.6,29.85,East,79,0.0,6.0,39,0.00,,---,0.00,VWS V14.01,2013-05-15 21:11:00,
2013-05-15 17:15:00,85.3,59.0,29.85,East,80,0.0,0.0,41,0.00,,---,0.00,VWS V14.01,2013-05-15 21:15:00,
2013-05-15 17:16:00,85.3,59.0,29.85,East,80,0.0,0.0,41,0.00,,---,0.00,VWS V14.01,2013-05-15 21:16:00,
2013-05-15 17:21:00,85.1,57.4,29.85,ENE,73,0.0,0.0,39,0.00,,---,0.00,VWS V14.01,2013-05-15 21:21:00,
2013-05-15 17:25:00,85.1,58.1,29.85,NE,54,0.0,0.0,40,0.00,,---,0.00,VWS V14.01,2013-05-15 21:25:00,
2013-05-15 17:26:00,85.1,58.1,29.85,East,95,0.0,0.0,40,0.00,,---,0.00,VWS V14.01,2013-05-15 21:26:00,
2013-05-15 17:30:00,85.1,57.4,29.85,ENE,64,0.0,0.0,39,0.00,,---,0.00,VWS V14.01,2013-05-15 21:30:00,
2013-05-15 17:31:00,85.1,57.4,29.85,North,357,0.0,0.0,39,0.00,,---,0.00,VWS V14.01,2013-05-15 21:31:00,
2013-05-15 17:35:00,85.1,56.7,29.85,East,97,0.0,1.0,38,0.00,,---,0.00,VWS V14.01,2013-05-15 21:35:00,
2013-05-15 17:36:00,85.1,56.7,29.85,East,97,0.0,0.0,38,0.00,,---,0.00,VWS V14.01,2013-05-15 21:36:00,
2013-05-15 17:40:00,85.1,56.7,29.85,ENE,61,0.0,3.0,38,0.00,,---,0.00,VWS V14.01,2013-05-15 21:40:00,
2013-05-15 17:41:00,85.1,56.7,29.85,ENE,61,0.0,0.0,38,0.00,,---,0.00,VWS V14.01,2013-05-15 21:41:00,
2013-05-15 17:45:00,85.1,58.8,29.84,ENE,61,0.0,0.0,41,0.00,,---,0.00,VWS V14.01,2013-05-15 21:45:00,
2013-05-15 17:46:00,85.1,58.1,29.84,ENE,59,0.0,0.0,40,0.00,,---,0.00,VWS V14.01,2013-05-15 21:46:00,
2013-05-15 17:50:00,84.9,57.2,29.84,East,93,0.0,6.0,39,0.00,,---,0.00,VWS V14.01,2013-05-15 21:50:00,
2013-05-15 17:51:00,84.7,57.7,29.84,East,93,0.0,0.0,40,0.00,,---,0.00,VWS V14.01,2013-05-15 21:51:00,
2013-05-15 17:55:00,84.5,58.2,29.84,East,95,0.0,1.0,41,0.00,,---,0.00,VWS V14.01,2013-05-15 21:55:00,
2013-05-15 17:56:00,84.5,56.8,29.84,NE,54,0.0,0.0,39,0.00,,---,0.00,VWS V14.01,2013-05-15 21:56:00,
2013-05-15 18:00:00,84.3,58.7,29.84,ESE,116,2.0,3.0,42,0.00,,---,0.00,VWS V14.01,2013-05-15 22:00:00,
2013-05-15 18:01:00,84.3,57.4,29.84,ESE,110,1.0,2.0,40,0.00,,---,0.00,VWS V14.01,2013-05-15 22:01:00,
2013-05-15 18:08:00,84.0,58.5,29.84,ESE,112,0.0,0.0,42,0.00,,---,0.00,VWS V14.01,2013-05-15 22:08:00,
2013-05-15 18:13:00,84.0,58.5,29.84,ESE,107,0.0,0.0,42,0.00,,---,0.00,VWS V14.01,2013-05-15 22:13:00,
2013-05-15 18:18:00,84.0,57.8,29.84,SE,126,0.0,2.0,41,0.00,,---,0.00,VWS V14.01,2013-05-15 22:18:00,
2013-05-15 18:23:00,83.8,58.3,29.84,ESE,104,0.0,0.0,42,0.00,,---,0.00,VWS V14.01,2013-05-15 22:23:00,
2013-05-15 18:29:00,83.6,58.1,29.84,ESE,116,0.0,0.0,42,0.00,,---,0.00,VWS V14.01,2013-05-15 22:29:00,
2013-05-15 18:34:00,83.6,58.1,29.84,ESE,113,0.0,2.0,42,0.00,,---,0.00,VWS V14.01,2013-05-15 22:34:00,
2013-05-15 18:39:00,83.4,59.2,29.84,SE,134,0.0,0.0,44,0.00,,---,0.00,VWS V14.01,2013-05-15 22:39:00,
2013-05-15 18:44:00,83.4,59.2,29.84,ESE,123,0.0,1.0,44,0.00,,---,0.00,VWS V14.01,2013-05-15 22:44:00,
2013-05-15 18:49:00,83.2,59.0,29.83,ESE,123,0.0,0.0,44,0.00,,---,0.00,VWS V14.01,2013-05-15 22:49:00,
2013-05-15 18:54:00,82.8,59.3,29.83,ENE,73,0.0,1.0,45,0.00,,---,0.00,VWS V14.01,2013-05-15 22:54:00,
2013-05-15 18:59:00,82.8,58.7,29.83,ESE,120,0.0,2.0,44,0.00,,---,0.00,VWS V14.01,2013-05-15 22:59:00,
2013-05-15 19:04:00,82.8,59.9,29.83,South,171,0.0,0.0,46,0.00,,---,0.00,VWS V14.01,2013-05-15 23:04:00,
2013-05-15 19:09:00,82.6,59.1,29.83,SE,136,0.0,0.0,45,0.00,,---,0.00,VWS V14.01,2013-05-15 23:09:00,
2013-05-15 19:14:00,82.4,59.6,29.83,SE,137,0.0,0.0,46,0.00,,---,0.00,VWS V14.01,2013-05-15 23:14:00,
2013-05-15 19:19:00,82.2,60.0,29.83,SE,137,0.0,0.0,47,0.00,,---,0.00,VWS V14.01,2013-05-15 23:19:00,
2013-05-15 19:24:00,82.0,59.8,29.83,SE,137,0.0,0.0,47,0.00,,---,0.00,VWS V14.01,2013-05-15 23:24:00,
2013-05-15 19:30:00,81.8,60.2,29.83,SE,137,0.0,0.0,48,0.00,,---,0.00,VWS V14.01,2013-05-15 23:30:00,
2013-05-15 19:35:00,81.4,60.4,29.83,SE,137,0.0,0.0,49,0.00,,---,0.00,VWS V14.01,2013-05-15 23:35:00,
2013-05-15 19:40:00,81.2,60.2,29.83,SE,137,0.0,0.0,49,0.00,,---,0.00,VWS V14.01,2013-05-15 23:40:00,
2013-05-15 19:45:00,81.1,60.2,29.83,SE,137,0.0,0.0,49,0.00,,---,0.00,VWS V14.01,2013-05-15 23:45:00,
2013-05-15 19:50:00,80.7,60.3,29.83,SE,137,0.0,0.0,50,0.00,,---,0.00,VWS V14.01,2013-05-15 23:50:00,
2013-05-15 19:55:00,80.3,60.0,29.83,SE,131,0.0,0.0,50,0.00,,---,0.00,VWS V14.01,2013-05-15 23:55:00,
2013-05-15 20:00:00,79.9,60.2,29.83,SE,131,0.0,0.0,51,0.00,,---,0.00,VWS V14.01,2013-05-16 00:00:00,
2013-05-15 20:05:00,79.8,61.2,29.83,SE,128,0.0,0.0,53,0.00,,---,0.00,VWS V14.01,2013-05-16 00:05:00,
2013-05-15 20:10:00,79.4,60.3,29.83,SE,128,0.0,0.0,52,0.00,,---,0.00,VWS V14.01,2013-05-16 00:10:00,
2013-05-15 20:15:00,79.0,60.4,29.83,SE,128,0.0,0.0,53,0.00,,---,0.00,VWS V14.01,2013-05-16 00:15:00,
2013-05-15 20:20:00,78.6,60.1,29.83,SE,128,0.0,0.0,53,0.00,,---,0.00,VWS V14.01,2013-05-16 00:20:00,
2013-05-15 20:25:00,78.5,60.5,29.83,SE,128,0.0,0.0,54,0.00,,---,0.00,VWS V14.01,2013-05-16 00:25:00,
2013-05-15 20:30:00,78.1,60.6,29.83,SE,128,0.0,0.0,55,0.00,,---,0.00,VWS V14.01,2013-05-16 00:30:00,
2013-05-15 20:36:00,77.7,60.3,29.83,SE,128,0.0,0.0,55,0.00,,---,0.00,VWS V14.01,2013-05-16 00:36:00,
2013-05-15 20:41:00,77.6,60.2,29.83,SE,128,0.0,0.0,55,0.00,,---,0.00,VWS V14.01,2013-05-16 00:41:00,
2013-05-15 20:46:00,77.4,60.5,29.84,SE,128,0.0,0.0,56,0.00,,---,0.00,VWS V14.01,2013-05-16 00:46:00,
2013-05-15 20:51:00,77.2,59.8,29.84,SE,128,0.0,0.0,55,0.00,,---,0.00,VWS V14.01,2013-05-16 00:51:00,
2013-05-15 20:56:00,76.8,59.9,29.84,SE,128,0.0,0.0,56,0.00,,---,0.00,VWS V14.01,2013-05-16 00:56:00,
2013-05-15 21:01:00,76.7,59.8,29.84,SE,128,0.0,0.0,56,0.00,,---,0.00,VWS V14.01,2013-05-16 01:01:00,
2013-05-15 21:06:00,76.7,59.3,29.84,SE,128,0.0,0.0,55,0.00,,---,0.00,VWS V14.01,2013-05-16 01:06:00,
2013-05-15 21:11:00,76.5,59.7,29.84,SE,128,0.0,0.0,56,0.00,,---,0.00,VWS V14.01,2013-05-16 01:11:00,
2013-05-15 21:16:00,76.5,59.7,29.84,SE,128,0.0,0.0,56,0.00,,---,0.00,VWS V14.01,2013-05-16 01:16:00,
2013-05-15 21:21:00,76.5,59.7,29.84,SE,128,0.0,0.0,56,0.00,,---,0.00,VWS V14.01,2013-05-16 01:21:00,
2013-05-15 21:26:00,76.3,59.5,29.84,SE,128,0.0,0.0,56,0.00,,---,0.00,VWS V14.01,2013-05-16 01:26:00,
2013-05-15 21:31:00,76.3,59.0,29.85,SE,128,0.0,0.0,55,0.00,,---,0.00,VWS V14.01,2013-05-16 01:31:00,
2013-05-15 21:36:00,76.3,59.0,29.85,SE,128,0.0,0.0,55,0.00,,---,0.00,VWS V14.01,2013-05-16 01:36:00,
2013-05-15 21:41:00,76.3,59.5,29.85,SE,128,0.0,0.0,56,0.00,,---,0.00,VWS V14.01,2013-05-16 01:41:00,
2013-05-15 21:47:00,76.1,59.3,29.85,SE,128,0.0,0.0,56,0.00,,---,0.00,VWS V14.01,2013-05-16 01:47:00,
2013-05-15 21:52:00,76.1,59.3,29.85,SE,126,0.0,0.0,56,0.00,,---,0.00,VWS V14.01,2013-05-16 01:52:00,
2013-05-15 21:57:00,76.1,59.3,29.85,SE,126,0.0,0.0,56,0.00,,---,0.00,VWS V14.01,2013-05-16 01:57:00,
2013-05-15 22:02:00,76.0,59.2,29.85,SE,126,0.0,0.0,56,0.00,,---,0.00,VWS V14.01,2013-05-16 02:02:00,
2013-05-15 22:07:00,75.8,60.0,29.85,SE,126,0.0,0.0,58,0.00,,---,0.00,VWS V14.01,2013-05-16 02:07:00,
2013-05-15 22:12:00,75.4,59.6,29.85,SE,126,0.0,0.0,58,0.00,,---,0.00,VWS V14.01,2013-05-16 02:12:00,
2013-05-15 22:17:00,75.3,60.0,29.85,SE,126,0.0,0.0,59,0.00,,---,0.00,VWS V14.01,2013-05-16 02:17:00,
2013-05-15 22:22:00,75.1,59.8,29.85,SE,126,0.0,0.0,59,0.00,,---,0.00,VWS V14.01,2013-05-16 02:22:00,
2013-05-15 22:27:00,74.9,59.6,29.85,SE,126,0.0,0.0,59,0.00,,---,0.00,VWS V14.01,2013-05-16 02:27:00,
2013-05-15 22:32:00,74.7,59.9,29.86,SE,126,0.0,0.0,60,0.00,,---,0.00,VWS V14.01,2013-05-16 02:32:00,
2013-05-15 22:37:00,74.6,59.8,29.86,SE,126,0.0,0.0,60,0.00,,---,0.00,VWS V14.01,2013-05-16 02:37:00,
2013-05-15 22:42:00,74.6,60.3,29.86,SE,126,0.0,0.0,61,0.00,,---,0.00,VWS V14.01,2013-05-16 02:42:00,
2013-05-15 22:47:00,74.4,60.1,29.86,SE,126,0.0,0.0,61,0.00,,---,0.00,VWS V14.01,2013-05-16 02:47:00,
2013-05-15 22:52:00,74.2,59.9,29.86,SE,126,0.0,0.0,61,0.00,,---,0.00,VWS V14.01,2013-05-16 02:52:00,
2013-05-15 22:57:00,74.2,59.9,29.86,SE,126,0.0,0.0,61,0.00,,---,0.00,VWS V14.01,2013-05-16 02:57:00,
2013-05-15 23:02:00,74.0,59.7,29.85,SE,126,0.0,0.0,61,0.00,,---,0.00,VWS V14.01,2013-05-16 03:02:00,
2013-05-15 23:07:00,74.0,59.7,29.85,SE,126,0.0,1.0,61,0.00,,---,0.00,VWS V14.01,2013-05-16 03:07:00,
2013-05-15 23:12:00,73.9,59.2,29.85,SE,126,0.0,0.0,60,0.00,,---,0.00,VWS V14.01,2013-05-16 03:12:00,
2013-05-15 23:17:00,73.9,59.6,29.85,SE,126,0.0,0.0,61,0.00,,---,0.00,VWS V14.01,2013-05-16 03:17:00,
2013-05-15 23:22:00,73.9,60.1,29.85,SE,133,0.0,0.0,62,0.00,,---,0.00,VWS V14.01,2013-05-16 03:22:00,
2013-05-15 23:27:00,73.5,59.7,29.85,SE,133,0.0,0.0,62,0.00,,---,0.00,VWS V14.01,2013-05-16 03:27:00,
2013-05-15 23:32:00,73.5,59.2,29.85,SE,127,0.0,0.0,61,0.00,,---,0.00,VWS V14.01,2013-05-16 03:32:00,
2013-05-15 23:37:00,73.5,59.7,29.85,SE,127,0.0,0.0,62,0.00,,---,0.00,VWS V14.01,2013-05-16 03:37:00,
2013-05-15 23:42:00,73.3,59.5,29.85,SE,127,0.0,0.0,62,0.00,,---,0.00,VWS V14.01,2013-05-16 03:42:00,
2013-05-15 23:48:00,73.5,59.2,29.85,NE,34,0.0,0.0,61,0.00,,---,0.00,VWS V14.01,2013-05-16 03:48:00,
2013-05-15 23:53:00,73.7,59.4,29.85,East,95,0.0,0.0,61,0.00,,---,0.00,VWS V14.01,2013-05-16 03:53:00,
2013-05-15 23:58:00,73.7,59.0,29.85,East,95,0.0,0.0,60,0.00,,---,0.00,VWS V14.01,2013-05-16 03:58:00,